This is the latest recevied weather packets stored in our database for station/object WC4PEM-14. If no packets are shown the sender has not sent any weather packets the latest 10 day(s).
| Time | Temp. | Humidity | Pressure | Rain* | Wind** | Luminosity | Snow |
|---|---|---|---|---|---|---|---|
| 1776977022 | 29.44° C | 41% | 1014.6 hPa | 0 mm | - | - | - |
| 1776976722 | 30° C | 40% | 1014.6 hPa | 0 mm | - | - | - |
| 1776976699 | 30.56° C | 39% | 1014.8 hPa | 0 mm | - | - | - |
| 1776976422 | 30.56° C | 39% | 1014.8 hPa | 0 mm | - | - | - |
| 1776976122 | 30.56° C | 38% | 1014.7 hPa | 0 mm | - | - | - |
| 1776975954 | 30.56° C | 39% | 1014.7 hPa | 0 mm | - | - | - |
| 1776975822 | 30.56° C | 39% | 1014.7 hPa | 0 mm | - | - | - |
| 1776975697 | 30.56° C | 40% | 1014.6 hPa | 0 mm | - | - | - |
| 1776975522 | 30.56° C | 40% | 1014.6 hPa | 0 mm | - | - | - |
| 1776975222 | 30.56° C | 40% | 1014.8 hPa | 0 mm | - | - | - |
| 1776975098 | 30° C | 42% | 1014.8 hPa | 0 mm | - | - | - |
| 1776974922 | 30° C | 42% | 1014.8 hPa | 0 mm | - | - | - |
| 1776974750 | 28.89° C | 44% | 1014.9 hPa | 0 mm | - | - | - |
| 1776974622 | 28.89° C | 44% | 1014.9 hPa | 0 mm | - | - | - |
| 1776974415 | 28.89° C | 44% | 1014.9 hPa | 0 mm | - | - | - |
| 1776974322 | 28.89° C | 44% | 1014.9 hPa | 0 mm | - | - | - |
| 1776974197 | 28.33° C | 45% | 1015.1 hPa | 0 mm | - | - | - |
| 1776974022 | 28.33° C | 45% | 1015.1 hPa | 0 mm | - | - | - |
| 1776973921 | 28.33° C | 46% | 1015.2 hPa | 0 mm | - | - | - |
| 1776973722 | 28.33° C | 46% | 1015.2 hPa | 0 mm | - | - | - |
| 1776973422 | 27.78° C | 46% | 1015.2 hPa | 0 mm | - | - | - |
| 1776973298 | 27.78° C | 45% | 1015.3 hPa | 0 mm | - | - | - |
| 1776973122 | 27.78° C | 45% | 1015.3 hPa | 0 mm | - | - | - |
| 1776973062 | 27.78° C | 46% | 1015.5 hPa | 0 mm | - | - | - |
| 1776972822 | 27.78° C | 46% | 1015.5 hPa | 0 mm | - | - | - |
* Rain latest hour (hover to see other rain measurements)
** Current wind speed in m/s (hover to see current wind gust speed)